Retour au catalogue

COSMOS 397

ActifMilitaireUNKNOWN
NORAD 4964·PAYLOAD·🇷🇺 Russia

Lancé Feb 25, 1971 depuis Baikonur Cosmodrome

Loading…

Prochains Passages (prochaines 24 heures)

TLE

FraisSource: Space-Track

Époque: Sep 14, 2026, 12:46 UTC

1 04964U 71015A   26257.53228094 -.00000006  00000-0  33977-4 0  9992
2 04964  65.7212 284.6596 1028586 200.4563 155.2253 12.74971312679640

Suivez COSMOS 397 en temps réel avec AllMySat

Download on the App Store